This demonstration page uses our WeatherBlox Daily Observations layout. Learn more.

Left ArrowRight Arrow

Hourly Observations for June 1, 2019

Temp ( °F °C ) Dew Point ( °F °C ) Humidity (%) Winds ( mph kmh ) Pressure ( in mb ) Visibility ( mi km ) Precip ( " mm )
12:51 am 00:51 Clear 71 21.7 15 -9.4 12 12 SE 9 15 29.72 1006 10 16 0.00 0.00
1:51 am 01:51 Clear 67 19.4 17 -8.3 15 15 ESE 7 11 29.72 1007 10 16 0.00 0.00
2:51 am 02:51 Clear 64 17.8 16 -8.9 15 15 E 6 9 29.73 1007 10 16 0.00 0.00
3:51 am 03:51 Clear 63 17.2 16 -8.9 16 16 ESE 6 9 29.73 1007 10 16 0.00 0.00
4:51 am 04:51 Clear 58 14.4 16 -8.9 19 19 Calm 29.76 1008 10 16 0.00 0.00
5:51 am 05:51 Sunny 62 16.7 17 -8.3 17 17 E 7 11 29.77 1008 10 16 0.00 0.00
6:51 am 06:51 Sunny 69 20.6 20 -6.7 15 15 Calm 29.77 1008 10 16 0.00 0.00
7:51 am 07:51 Sunny 79 26.1 20 -6.7 11 11 E 10 17 29.77 1008 10 16 0.00 0.00
8:51 am 08:51 Sunny 83 28.3 21 -6.1 10 10 SE 14 22 29.77 1008 10 16 0.00 0.00
9:51 am 09:51 Sunny 86 30 23 -5 10 10 ESE 7 11 29.75 1007 10 16 0.00 0.00
10:51 am 10:51 Sunny 90 32.2 32 0 13 13 SSE 12 19 29.73 1007 10 16 0.00 0.00
11:51 am 11:51 Mostly Sunny 92 33.3 32 0 12 12 S 8 13 29.70 1006 10 16 0.00 0.00
12:51 pm 12:51 Sunny 95 35 30 -1.1 10 10 S 14 22 29.67 1005 10 16 0.00 0.00
1:51 pm 13:51 Sunny 96 35.6 30 -1.1 10 10 SSE 13 20 29.65 1004 10 16 0.00 0.00
2:51 pm 14:51 Sunny 97 36.1 30 -1.1 9 9 SE 16 26 29.62 1003 10 16 0.00 0.00
3:51 pm 15:51 Sunny 99 37.2 25 -3.9 7 7 SSE 15 24 29.59 1002 10 16 0.00 0.00
4:51 pm 16:51 Sunny 97 36.1 22 -5.6 7 7 SW 12 19 29.59 1002 10 16 0.00 0.00
5:51 pm 17:51 Sunny 95 35 20 -6.7 6 6 SW 16 26 29.57 1002 10 16 0.00 0.00
6:51 pm 18:51 Sunny 93 33.9 28 -2.2 10 10 SSW 10 17 29.58 1002 10 16 0.00 0.00
7:51 pm 19:51 Clear 88 31.1 29 -1.7 12 12 NW 15 24 29.59 1002 10 16 0.00 0.00
8:51 pm 20:51 Clear 85 29.4 27 -2.8 12 12 NNW 13 20 29.62 1003 10 16 0.00 0.00
9:51 pm 21:51 Clear 83 28.3 29 -1.7 14 14 NNW 14 22 29.63 1003 10 16 0.00 0.00
10:51 pm 22:51 Clear 80 26.7 30 -1.1 16 16 WNW 13 20 29.64 1004 10 16 0.00 0.00
11:51 pm 23:51 Clear 76 24.4 30 -1.1 18 18 NW 10 17 29.66 1005 10 16 0.00 0.00

Powered by AerisWeather